�N����,����,�~����,�C��,���x,�C��,����,���ϕ���,�ő�u�ԕ���,�ő厞����,���˗�,�I�_���x,�n�����x,�ő啗���N��,DTYPE
"19/11/06","00:10",0.0,9.2,89.3,1011.4,325.1,2.8,4.2,315.8,0.00,7.6,14.3,"00:03:52",1
"19/11/06","00:20",0.0,9.3,89.2,1011.9,313.5,2.7,4.1,310.0,0.00,7.7,14.1,"00:16:08",1
"19/11/06","00:30",0.0,9.1,89.2,1011.6,310.3,2.3,3.6,320.8,0.00,7.5,14.2,"00:22:56",1
"19/11/06","00:40",0.0,9.1,89.3,1011.4,319.5,2.8,4.3,342.0,0.00,7.5,14.1,"00:35:44",1
"19/11/06","00:50",0.0,8.8,89.3,1011.4,325.6,2.3,3.3,333.6,0.00,7.2,14.2,"00:43:36",1
"19/11/06","01:00",0.0,8.5,89.5,1011.4,328.9,2.3,3.6,335.6,0.00,6.9,13.8,"00:55:12",1
"19/11/06","01:10",0.0,8.4,89.7,1011.4,325.8,1.6,3.1,335.8,0.00,6.8,14.2,"01:00:56",1
"19/11/06","01:20",0.0,7.9,89.9,1011.4,288.6,1.5,2.5,313.7,0.00,6.4,14.1,"01:17:12",1
"19/11/06","01:30",0.0,7.7,90.2,1011.2,295.0,2.0,2.8,336.2,0.00,6.2,14.1,"01:29:12",1
"19/11/06","01:40",0.0,7.9,90.6,1011.4,318.3,2.3,3.5,335.5,0.00,6.5,13.9,"01:33:52",1
"19/11/06","01:50",0.0,8.0,90.8,1011.4,321.9,2.3,3.3,330.1,0.00,6.6,14.1,"01:42:00",1
"19/11/06","02:00",0.0,7.8,91.1,1011.6,307.1,2.3,4.0,307.2,0.00,6.5,13.8,"01:58:16",1
"19/11/06","02:10",0.0,7.7,91.3,1011.4,318.1,2.3,3.6,332.1,0.00,6.4,13.9,"02:04:40",1
"19/11/06","02:20",0.0,7.8,91.7,1011.2,325.1,2.6,3.9,342.4,0.00,6.6,13.9,"02:10:02",1
"19/11/06","02:30",0.0,8.3,91.8,1011.4,322.4,3.6,5.9,337.4,0.00,7.1,13.8,"02:26:16",1
"19/11/06","02:40",0.0,8.0,91.9,1011.2,327.0,2.8,4.9,323.3,0.00,6.8,13.7,"02:31:12",1
"19/11/06","02:50",0.0,7.7,92.2,1011.2,321.0,2.8,3.7,322.3,0.00,6.6,13.8,"02:49:44",1
"19/11/06","03:00",0.0,7.9,92.3,1011.2,319.6,2.6,4.4,330.8,0.00,6.8,13.6,"02:53:20",1
"19/11/06","03:10",0.0,7.6,92.4,1011.4,306.8,2.1,3.5,308.8,0.00,6.5,13.7,"03:00:48",1
"19/11/06","03:20",0.0,7.3,92.8,1011.6,309.3,2.3,3.9,315.2,0.00,6.3,13.7,"03:17:44",1
"19/11/06","03:30",0.0,7.3,92.9,1011.2,318.5,2.6,4.2,315.8,0.00,6.3,13.6,"03:25:04",1
"19/11/06","03:40",0.0,7.2,93.0,1011.4,314.2,2.1,3.2,322.3,0.00,6.2,13.6,"03:33:52",1
"19/11/06","03:50",0.0,7.2,93.3,1011.2,322.5,2.6,3.7,321.7,0.00,6.2,13.4,"03:46:24",1
"19/11/06","04:00",0.0,7.4,93.5,1010.7,323.7,3.1,5.0,328.0,0.00,6.5,13.7,"03:50:02",1
"19/11/06","04:10",0.0,7.5,93.4,1010.9,327.4,3.2,5.7,331.5,0.00,6.5,13.6,"04:01:20",1
"19/11/06","04:20",0.0,7.5,93.5,1011.2,322.7,2.6,3.9,319.9,0.00,6.6,13.5,"04:11:52",1
"19/11/06","04:30",0.0,7.3,93.6,1011.2,324.2,2.2,3.2,322.3,0.00,6.4,13.5,"04:24:00",1
"19/11/06","04:40",0.0,7.1,93.7,1010.9,306.5,2.1,2.9,323.5,0.00,6.2,13.4,"04:32:48",1
"19/11/06","04:50",0.0,6.9,93.9,1011.2,290.7,1.8,2.6,317.2,0.00,6.0,13.2,"04:44:24",1
"19/11/06","05:00",0.0,6.7,94.0,1011.4,295.3,1.8,2.7,308.3,0.00,5.8,13.2,"04:54:48",1
"19/11/06","05:10",0.0,6.6,94.2,1011.4,292.4,1.6,2.6,293.3,0.00,5.8,13.2,"05:06:08",1
"19/11/06","05:20",0.0,6.7,94.3,1011.4,298.2,2.2,3.7,330.9,0.00,5.9,13.1,"05:14:24",1
"19/11/06","05:30",0.0,6.6,94.3,1011.4,294.7,2.1,3.4,336.5,0.00,5.8,13.3,"05:20:08",1
"19/11/06","05:40",0.0,6.5,94.4,1011.6,297.8,1.8,3.2,316.9,0.00,5.7,13.2,"05:33:20",1
"19/11/06","05:50",0.0,6.5,94.6,1011.6,307.2,2.5,4.0,326.2,0.00,5.7,13.1,"05:46:16",1
"19/11/06","06:00",0.0,6.4,94.8,1011.6,318.4,2.3,3.6,323.2,0.00,5.7,13.1,"05:59:20",1
"19/11/06","06:10",0.0,6.4,94.9,1012.1,311.1,2.5,4.0,327.7,0.00,5.7,13.1,"06:08:08",1
"19/11/06","06:20",0.0,6.5,95.0,1012.1,314.1,2.6,5.0,320.0,0.00,5.8,13.0,"06:17:28",1
"19/11/06","06:30",0.0,6.4,95.0,1011.9,316.3,2.5,4.2,315.2,0.00,5.7,12.9,"06:24:00",1
"19/11/06","06:40",0.0,6.3,95.3,1011.9,317.0,2.7,3.4,332.7,0.00,5.6,13.0,"06:32:56",1
"19/11/06","06:50",0.0,6.3,95.3,1011.9,319.5,2.8,4.8,319.6,0.00,5.6,12.9,"06:46:16",1
"19/11/06","07:00",0.0,6.3,95.5,1012.1,318.3,2.8,3.9,327.6,0.00,5.7,13.0,"06:57:28",1
"19/11/06","07:10",0.0,6.2,95.6,1012.1,321.8,2.5,3.7,335.8,0.00,5.6,12.9,"07:05:52",1
"19/11/06","07:20",0.0,6.2,95.7,1012.6,322.4,2.5,4.0,330.4,0.00,5.6,12.9,"07:11:28",1
"19/11/06","07:30",0.0,6.5,95.9,1012.6,315.5,2.1,3.7,329.9,0.00,5.9,12.9,"07:25:36",1
"19/11/06","07:40",0.0,7.0,95.9,1012.6,326.1,2.5,3.3,332.7,0.00,6.4,12.9,"07:32:24",1
"19/11/06","07:50",0.0,7.5,95.9,1013.0,322.0,2.6,4.3,328.6,0.00,6.9,12.8,"07:41:12",1
"19/11/06","08:00",0.0,7.9,95.8,1012.8,320.8,2.7,4.2,326.4,0.01,7.3,12.8,"07:52:24",1
"19/11/06","08:10",0.0,8.3,95.8,1013.3,323.9,2.3,4.1,330.7,0.02,7.7,12.9,"08:04:24",1
"19/11/06","08:20",0.0,8.6,95.6,1013.0,317.0,2.3,4.2,341.9,0.03,8.0,12.8,"08:18:16",1
"19/11/06","08:30",0.0,9.3,95.2,1013.5,299.7,1.6,3.2,324.1,0.05,8.6,12.9,"08:21:04",1
"19/11/06","08:40",0.0,9.6,95.0,1013.5,294.6,1.3,3.3,319.2,0.07,8.9,13.1,"08:34:24",1
"19/11/06","08:50",0.0,9.9,94.6,1014.0,291.4,1.5,2.7,318.7,0.11,9.1,13.1,"08:49:12",1
"19/11/06","09:00",0.0,10.3,94.1,1014.2,303.7,1.6,3.1,339.6,0.15,9.4,13.3,"08:55:52",1
"19/11/06","09:10",0.0,10.7,93.5,1014.7,318.0,1.8,5.1,342.0,0.18,9.7,13.3,"09:02:00",1
"19/11/06","09:20",0.0,10.8,92.6,1014.5,321.2,2.3,4.5,342.9,0.20,9.7,13.5,"09:18:08",1
"19/11/06","09:30",0.0,11.3,91.8,1014.5,308.6,1.8,3.5,339.4,0.23,10.1,13.7,"09:29:28",1
"19/11/06","09:40",0.0,11.8,90.3,1014.2,274.9,1.3,3.1,320.5,0.25,10.3,13.8,"09:37:04",1
"19/11/06","09:50",0.0,12.0,88.9,1014.2,266.0,1.5,2.7,250.7,0.27,10.3,14.0,"09:47:12",1
"19/11/06","10:00",0.0,12.6,87.0,1014.0,287.6,1.1,2.2,330.0,0.29,10.5,14.3,"09:57:44",1
"19/11/06","10:10",0.0,12.8,84.0,1014.0,241.6,1.1,2.4,223.1,0.32,10.2,14.4,"10:08:48",1
"19/11/06","10:20",0.0,13.4,82.3,1014.0,240.5,0.8,2.2,245.8,0.34,10.5,14.6,"10:11:20",1
"19/11/06","10:30",0.0,14.2,79.7,1013.8,231.7,0.7,1.9,242.0,0.36,10.8,14.9,"10:26:08",1
"19/11/06","10:40",0.0,14.8,77.3,1013.5,251.5,0.8,1.7,249.5,0.37,10.9,15.0,"10:35:36",1
"19/11/06","10:50",0.0,15.2,74.5,1013.3,184.9,0.5,1.3,84.6,0.39,10.7,15.3,"10:45:20",1
"19/11/06","11:00",0.0,16.0,73.0,1013.0,294.5,0.6,1.6,337.2,0.40,11.2,15.4,"10:52:16",1
"19/11/06","11:10",0.0,16.3,71.1,1012.8,220.3,0.8,2.2,231.2,0.41,11.1,15.6,"11:04:08",1
"19/11/06","11:20",0.0,16.7,70.0,1012.3,185.2,1.0,2.5,220.4,0.42,11.2,15.8,"11:19:20",1
"19/11/06","11:30",0.0,16.9,68.7,1012.6,172.8,0.8,1.8,157.0,0.43,11.2,16.1,"11:20:24",1
"19/11/06","11:40",0.0,17.5,67.5,1012.1,216.8,0.7,2.9,132.8,0.44,11.5,16.2,"11:35:52",1
"19/11/06","11:50",0.0,17.4,65.7,1011.9,223.6,1.3,2.9,205.3,0.45,11.0,16.4,"11:46:16",1
"19/11/06","12:00",0.0,17.9,64.9,1011.9,274.9,1.0,4.0,332.2,0.45,11.3,16.6,"11:50:02",1
"19/11/06","12:10",0.0,18.4,64.2,1011.4,292.6,1.0,2.8,341.1,0.45,11.6,17.0,"12:04:00",1
"19/11/06","12:20",0.0,18.4,63.0,1011.2,304.3,1.2,2.6,336.7,0.45,11.3,17.0,"12:16:56",1
"19/11/06","12:30",0.0,18.6,61.7,1010.7,275.8,1.1,2.2,248.3,0.45,11.2,17.4,"12:26:56",1
"19/11/06","12:40",0.0,18.8,61.2,1010.9,297.5,1.1,2.5,347.4,0.45,11.2,17.4,"12:33:12",1
"19/11/06","12:50",0.0,19.1,59.1,1010.7,311.1,1.3,3.1,350.3,0.45,11.0,17.6,"12:43:04",1
"19/11/06","13:00",0.0,19.4,57.7,1010.7,288.3,1.1,3.1,347.0,0.45,10.9,18.1,"12:56:56",1
"19/11/06","13:10",0.0,19.7,57.1,1010.4,273.0,1.0,2.2,342.6,0.44,11.0,18.1,"13:00:08",1
"19/11/06","13:20",0.0,19.5,57.4,1010.0,237.0,1.3,2.8,243.1,0.43,10.9,18.3,"13:11:44",1
"19/11/06","13:30",0.0,19.4,58.4,1010.0,238.6,1.6,3.4,232.2,0.42,11.1,18.2,"13:23:12",1
"19/11/06","13:40",0.0,19.7,57.4,1009.7,272.3,1.6,4.0,238.8,0.41,11.1,18.5,"13:32:48",1
"19/11/06","13:50",0.0,20.1,56.6,1010.0,252.1,1.2,2.9,231.6,0.40,11.3,18.7,"13:47:12",1
"19/11/06","14:00",0.0,20.0,55.9,1009.5,234.7,1.5,2.8,221.0,0.38,11.0,18.7,"13:51:36",1
"19/11/06","14:10",0.0,20.5,55.8,1009.5,278.8,1.1,3.1,213.0,0.37,11.4,18.9,"14:00:48",1
"19/11/06","14:20",0.0,20.5,54.1,1009.5,327.1,1.7,4.0,341.5,0.35,11.0,18.9,"14:14:48",1
"19/11/06","14:30",0.0,20.5,55.1,1009.3,302.6,1.7,3.7,339.2,0.33,11.2,18.8,"14:23:04",1
"19/11/06","14:40",0.0,20.4,53.5,1009.0,242.2,1.6,3.2,230.0,0.31,10.7,19.0,"14:39:20",1
"19/11/06","14:50",0.0,20.7,54.9,1009.0,242.4,1.5,3.2,205.5,0.29,11.4,19.0,"14:40:02",1
"19/11/06","15:00",0.0,20.3,55.5,1008.8,232.2,1.8,4.2,235.6,0.27,11.1,18.9,"14:55:12",1
"19/11/06","15:10",0.0,20.6,56.7,1008.6,229.7,1.2,3.7,213.3,0.24,11.8,19.0,"15:03:12",1
"19/11/06","15:20",0.0,20.4,54.9,1008.8,243.9,1.5,2.8,226.3,0.22,11.1,19.0,"15:13:28",1
"19/11/06","15:30",0.0,20.6,55.3,1008.6,254.5,1.0,2.0,232.7,0.20,11.4,18.7,"15:24:08",1
"19/11/06","15:40",0.0,20.6,56.2,1008.8,231.7,1.1,3.2,198.4,0.17,11.6,18.9,"15:37:12",1
"19/11/06","15:50",0.0,20.4,55.7,1009.0,243.8,1.0,2.2,232.1,0.15,11.3,19.1,"15:45:04",1
"19/11/06","16:00",0.0,20.1,56.1,1008.8,226.0,1.7,3.1,226.1,0.12,11.1,18.8,"15:54:24",1
"19/11/06","16:10",0.0,19.8,58.1,1008.8,232.0,1.3,2.8,210.6,0.10,11.4,18.9,"16:02:48",1
"19/11/06","16:20",0.0,19.6,58.8,1008.8,246.2,1.3,2.6,224.7,0.07,11.4,18.7,"16:12:24",1
"19/11/06","16:30",0.0,19.4,58.5,1009.0,254.7,1.3,3.4,231.7,0.05,11.1,18.6,"16:28:08",1
"19/11/06","16:40",0.0,19.2,59.0,1009.3,293.6,1.0,2.1,334.4,0.04,11.0,18.7,"16:31:28",1
"19/11/06","16:50",0.0,18.8,60.0,1009.3,313.9,1.3,2.4,343.0,0.02,10.9,18.5,"16:49:04",1
"19/11/06","17:00",0.0,18.1,62.0,1009.5,313.3,1.0,1.8,327.4,0.01,10.8,18.3,"16:50:08",1
"19/11/06","17:10",0.0,17.3,64.1,1009.5,298.3,0.8,1.9,337.4,0.00,10.5,18.3,"17:08:48",1
"19/11/06","17:20",0.0,16.4,66.9,1009.5,299.2,1.1,1.9,318.7,0.00,10.3,17.9,"17:16:16",1
"19/11/06","17:30",0.0,15.6,68.5,1009.5,281.8,0.8,1.4,291.5,0.00,9.9,17.9,"17:25:52",1
"19/11/06","17:40",0.0,14.9,70.1,1009.5,280.2,1.0,1.4,333.4,0.00,9.5,17.9,"17:34:08",1
"19/11/06","17:50",0.0,14.5,71.8,1009.3,284.4,1.1,2.8,325.3,0.00,9.5,17.3,"17:48:16",1
"19/11/06","18:00",0.0,14.2,73.2,1009.5,291.9,1.2,3.3,314.6,0.00,9.5,17.4,"17:52:32",1
"19/11/06","18:10",0.0,14.2,74.4,1009.5,296.9,1.3,3.2,344.3,0.00,9.8,17.3,"18:09:28",1
"19/11/06","18:20",0.0,14.2,75.1,1009.5,300.4,1.6,3.2,324.4,0.00,9.9,17.1,"18:14:16",1
"19/11/06","18:30",0.0,14.1,75.4,1009.7,290.3,1.2,2.2,329.1,0.00,9.9,17.3,"18:23:28",1
"19/11/06","18:40",0.0,13.9,76.0,1010.2,289.5,1.2,2.6,321.0,0.00,9.8,16.9,"18:36:00",1
"19/11/06","18:50",0.0,14.0,76.1,1010.4,315.7,1.6,3.5,347.7,0.00,9.9,16.7,"18:44:42",1
"19/11/06","19:00",0.0,14.2,75.3,1010.2,301.5,1.3,2.1,302.9,0.00,9.9,16.7,"18:50:48",1
"19/11/06","19:10",0.0,13.9,75.3,1010.2,316.4,1.8,2.9,337.3,0.00,9.6,16.8,"19:03:44",1
"19/11/06","19:20",0.0,13.6,75.8,1010.2,304.0,1.7,2.9,336.8,0.00,9.5,16.5,"19:13:52",1
"19/11/06","19:30",0.0,13.2,76.9,1010.0,318.6,1.6,2.6,324.4,0.00,9.3,16.6,"19:22:04",1
"19/11/06","19:40",0.0,12.8,78.2,1010.2,311.7,1.7,2.6,296.1,0.00,9.1,16.2,"19:34:12",1
"19/11/06","19:50",0.0,12.8,79.7,1010.2,328.4,2.7,4.3,323.6,0.00,9.4,16.3,"19:46:10",1
"19/11/06","20:00",0.0,12.7,80.6,1010.2,331.1,2.0,3.5,335.6,0.00,9.5,16.2,"19:52:56",1
"19/11/06","20:10",0.0,12.4,81.1,1010.2,322.8,1.7,3.3,338.9,0.00,9.3,16.2,"20:01:58",1
"19/11/06","20:20",0.0,12.0,81.7,1010.2,291.5,1.2,2.0,319.8,0.00,9.0,16.1,"20:18:36",1
"19/11/06","20:30",0.0,11.5,82.3,1010.2,305.8,1.2,2.7,318.8,0.00,8.6,16.0,"20:20:02",1
"19/11/06","20:40",0.0,11.5,83.1,1010.0,314.2,1.5,2.9,335.4,0.00,8.8,15.9,"20:31:36",1
"19/11/06","20:50",0.0,11.4,83.8,1010.0,331.0,1.2,2.6,336.1,0.00,8.8,15.8,"20:48:36",1
"19/11/06","21:00",0.0,11.3,84.4,1010.0,313.4,1.3,2.5,333.0,0.00,8.8,15.7,"20:59:30",1
"19/11/06","21:10",0.0,11.6,84.9,1010.0,326.6,2.2,3.9,342.9,0.00,9.2,15.6,"21:03:12",1
"19/11/06","21:20",0.0,11.5,85.1,1009.7,325.5,2.2,3.1,336.5,0.00,9.1,15.7,"21:14:40",1
"19/11/06","21:30",0.0,11.5,85.3,1010.0,329.6,2.2,3.3,307.8,0.00,9.2,15.4,"21:22:00",1
"19/11/06","21:40",0.0,11.5,85.3,1010.0,328.2,2.5,3.6,324.7,0.00,9.2,15.6,"21:35:06",1
"19/11/06","21:50",0.0,11.3,85.5,1010.0,329.8,2.3,4.0,339.7,0.00,9.0,15.5,"21:49:46",1
"19/11/06","22:00",0.0,11.1,85.5,1010.0,311.1,1.7,4.0,338.9,0.00,8.8,15.3,"21:50:40",1
"19/11/06","22:10",0.0,10.9,85.7,1010.0,317.8,1.6,3.1,315.4,0.00,8.6,15.2,"22:05:44",1
"19/11/06","22:20",0.0,10.4,85.9,1010.2,320.7,1.3,2.0,330.2,0.00,8.2,15.1,"22:14:32",1
"19/11/06","22:30",0.0,9.6,86.2,1010.2,288.6,0.3,1.2,307.2,0.00,7.4,15.1,"22:27:52",1
"19/11/06","22:40",0.0,9.3,86.8,1010.2,313.8,1.8,2.7,327.7,0.00,7.3,15.2,"22:38:00",1
"19/11/06","22:50",0.0,8.8,87.2,1010.2,298.2,1.5,2.5,323.8,0.00,6.8,15.0,"22:40:24",1
"19/11/06","23:00",0.0,8.6,87.9,1010.4,285.6,1.5,2.4,310.8,0.00,6.8,14.9,"22:56:24",1
"19/11/06","23:10",0.0,9.1,88.4,1010.9,284.9,1.5,2.7,306.4,0.00,7.3,15.1,"23:01:28",1
"19/11/06","23:20",0.0,9.1,88.7,1010.4,320.4,1.7,2.2,319.0,0.00,7.4,14.9,"23:15:20",1
"19/11/06","23:30",0.0,8.8,89.1,1010.2,301.9,1.7,2.5,324.6,0.00,7.1,14.6,"23:22:08",1
"19/11/06","23:40",0.0,8.7,89.7,1010.2,278.8,1.6,2.0,261.3,0.00,7.1,14.8,"23:37:36",1
"19/11/06","23:50",0.0,8.8,89.8,1010.2,287.6,1.5,2.5,320.1,0.00,7.3,14.8,"23:41:28",1
"19/11/06","24:00",0.0,8.6,90.1,1009.7,309.3,1.8,2.5,322.7,0.00,7.1,14.6,"23:55:04",1
